Location: North Bay
(46.3091°N, 79.4608°W)
Time: 20:24:48
(UTC-04:00)

OTV 5 (USA 277) - Visible Passes

Search period start: 19 October 2019 00:00
Search period end: 29 October 2019 00:00
Orbit: 310 x 324 km, 54.5° (Epoch: 17 October)

Date Brightness Start Highest point End Pass type
(mag) Time Alt. Az. Time Alt. Az. Time Alt. Az.
19 Oct ? 05:23:09 19° E 05:23:09 19° E 05:24:10 10° ESE visible
19 Oct ? 06:54:04 13° W 06:55:40 20° SW 06:57:44 10° S visible
20 Oct ? 05:37:48 21° SE 05:37:48 21° SE 05:38:51 10° SE visible
21 Oct ? 05:52:34 13° SSE 05:52:34 13° SSE 05:53:02 10° SSE visible
28 Oct ? 19:09:56 10° SSE 19:11:14 13° SE 19:11:24 13° SE visible
